Wind_Speed
42 41 41 41 41 40 38 37 35 33 30 29 29 27 24 21 19 17 15 14 14 15 15 14 14 12 12 12 13 13 12 11 11 11 12 12 13 13 14 15 15 16
42 42 42 41 41 40 37 36 35 33 30 27 27 27 23 20 19 18 16 14 14 15 15 14 14 13 12 12 13 12 11 11 11 11 12 13 13 13 14 14 15 15
43 42 43 42 41 39 37 37 36 33 30 27 26 25 23 21 20 19 17 15 15 16 15 15 14 13 13 13 13 12 11 11 11 12 12 13 14 14 14 15 15 14
45 43 43 43 41 39 37 37 36 34 31 29 27 25 23 23 21 20 18 16 16 16 16 15 14 13 13 13 13 13 12 11 12 12 13 13 14 14 15 15 14 13
46 43 43 43 41 40 38 37 36 34 32 30 28 25 24 24 23 22 20 17 16 17 16 16 14 13 13 14 14 13 13 12 12 13 13 13 13 14 14 14 13 12
47 44 42 43 42 41 39 38 37 35 33 30 28 26 25 25 24 23 20 17 17 17 16 15 14 13 14 14 14 14 13 13 13 13 12 12 12 13 13 13 12 12
49 46 43 43 43 41 39 39 37 35 33 31 29 27 27 26 25 23 21 18 18 18 16 15 14 14 14 14 14 14 14 13 13 12 12 12 12 13 13 13 13 12
49 48 45 43 43 41 40 40 38 35 33 32 30 28 27 27 25 24 21 19 19 18 16 15 14 14 14 15 14 14 13 13 12 12 12 12 13 13 14 14 13 12
49 48 47 45 43 42 42 41 39 36 33 32 31 29 28 28 26 23 21 20 19 19 17 15 15 15 15 15 14 13 13 12 12 12 11 12 13 14 14 14 13 13
50 49 48 47 45 43 43 42 40 36 34 33 31 30 30 29 26 24 22 21 20 19 17 16 16 15 15 15 13 12 12 12 12 12 12 13 14 15 15 14 14 13
50 49 48 48 46 44 44 44 42 37 34 33 32 31 31 30 27 25 25 23 22 20 18 16 16 15 15 15 13 12 12 12 12 12 13 15 16 16 15 14 14 13
50 49 48 48 47 46 45 45 43 38 35 34 32 32 32 31 28 27 26 25 23 20 18 16 15 15 16 14 13 13 13 13 12 13 15 16 17 17 16 15 15 14
50 49 48 48 49 48 46 46 44 38 35 34 33 33 34 32 29 28 26 25 24 21 18 16 16 17 16 15 14 14 14 14 13 15 17 18 18 17 17 17 16 15
50 49 47 49 50 48 47 47 44 39 35 33 33 34 35 33 30 28 27 25 24 22 18 17 17 18 17 16 15 15 15 14 15 16 18 19 19 18 18 17 17 16
48 48 48 49 51 48 47 48 45 39 35 32 32 34 35 33 30 28 27 26 24 22 20 19 19 18 17 16 15 15 15 15 16 18 19 20 20 19 19 18 18 17
45 47 49 50 50 48 48 49 45 39 34 30 31 33 34 33 31 29 28 27 26 24 22 21 21 19 18 17 16 16 15 15 17 20 20 21 21 20 20 19 18 18
42 46 49 48 48 47 48 48 45 39 34 31 31 32 33 34 33 31 30 28 27 25 23 22 21 20 19 18 17 16 15 16 19 21 21 22 21 20 19 19 19 19
42 45 47 47 47 47 48 47 44 39 34 33 33 32 32 34 34 33 31 30 29 27 24 23 21 20 19 18 17 16 15 17 20 21 22 22 21 20 20 19 19 18
43 44 46 47 47 47 47 45 42 38 35 35 35 33 33 33 34 33 32 30 30 29 27 23 21 21 19 18 17 15 15 18 21 22 21 21 21 21 21 20 19 18
43 44 46 47 46 46 45 44 41 38 36 35 35 36 37 35 33 33 33 33 32 30 28 24 22 22 21 19 17 15 15 19 22 22 22 21 21 21 21 21 19 18
43 45 46 46 45 44 44 43 41 38 35 35 37 39 39 37 34 32 32 34 33 30 27 24 22 23 22 20 17 15 15 19 22 22 22 22 22 22 21 20 18 17
45 45 45 45 45 45 44 43 41 37 34 35 38 41 42 39 33 30 32 34 34 31 28 24 23 24 24 21 18 16 16 19 22 23 23 23 23 23 22 21 19 17
45 45 46 45 45 45 45 44 41 37 34 35 38 42 45 42 34 30 32 34 33 33 30 26 25 28 26 23 20 18 17 18 21 23 23 24 25 24 23 23 21 19
44 45 45 45 45 45 44 43 40 36 33 33 38 42 43 41 36 31 32 32 33 34 32 27 28 30 28 24 23 20 18 17 19 22 24 25 25 24 23 23 21 18
43 44 44 44 44 44 43 40 39 39 34 31 35 39 40 39 37 33 32 32 33 35 33 29 30 31 29 26 24 22 18 17 19 22 25 26 26 25 24 24 21 19
42 43 43 43 42 42 41 38 36 38 36 32 32 35 37 40 42 39 35 32 32 35 35 32 31 31 29 26 25 22 19 19 21 24 26 27 26 26 26 25 22 21
Wind_Direction
233 233 234 235 237 238 236 234 234 232 231 229 229 228 227 230 230 228 230 233 237 239 239 239 239 241 249 255 259 263 265 259 250 246 247 248 250 250 250 249 246 242
232 233 234 235 237 239 238 236 236 235 232 232 232 230 227 229 231 229 229 232 237 238 237 239 240 243 251 255 258 263 263 256 250 249 251 253 254 254 253 248 242 237
229 231 234 235 237 239 239 237 237 236 234 233 234 231 227 227 230 229 226 230 235 234 235 238 240 245 251 254 257 263 265 260 253 253 255 255 254 252 249 242 236 230
227 229 232 235 236 239 239 238 237 235 231 231 233 232 226 225 227 227 225 227 231 230 232 236 240 246 251 254 258 264 268 265 259 258 258 256 253 247 241 235 228 224
225 227 230 233 235 238 239 239 238 234 230 230 231 230 226 224 225 224 223 226 227 225 228 234 239 246 251 254 258 264 269 267 262 259 258 255 248 241 235 229 223 220
224 225 228 232 234 236 238 239 238 234 231 230 231 230 225 222 223 223 223 225 224 222 226 233 238 244 250 254 258 264 267 265 261 258 256 251 242 234 229 222 218 216
223 223 226 229 232 235 237 239 238 234 231 231 231 230 225 221 221 221 222 225 223 221 225 231 237 244 248 251 256 261 264 262 259 257 255 247 236 228 222 217 214 210
222 223 225 227 231 234 236 238 238 234 230 230 231 230 225 220 219 219 221 223 221 220 223 228 235 241 244 248 253 259 262 260 259 259 252 239 228 221 216 212 209 205
222 223 225 227 229 232 235 237 237 233 229 229 230 229 224 219 218 217 220 223 221 219 220 225 233 237 240 246 251 257 259 259 261 258 245 230 221 216 211 207 204 202
222 222 225 227 228 230 233 236 236 232 227 227 229 227 222 217 216 216 219 223 222 218 219 224 231 234 238 243 249 255 257 259 261 253 234 220 214 210 207 203 201 201
223 222 225 228 228 228 231 234 235 231 226 226 227 224 219 215 214 215 218 222 222 218 218 224 230 236 239 240 246 254 255 257 256 241 223 213 209 206 202 200 199 199
223 223 225 228 228 227 230 232 233 230 225 225 225 221 217 214 213 214 216 220 221 218 218 223 230 238 241 238 243 251 252 253 247 229 215 209 208 204 199 197 197 197
225 225 225 227 228 227 228 231 231 229 224 224 224 219 214 213 213 214 216 219 219 216 216 222 231 238 237 233 240 248 250 250 239 221 211 207 205 203 199 197 196 195
227 227 225 226 228 227 228 230 230 227 223 223 223 217 213 212 212 214 217 219 218 215 216 224 232 236 232 228 236 245 248 246 232 216 211 208 205 201 200 199 197 196
224 225 224 225 228 227 227 229 229 225 221 221 221 216 212 212 214 218 220 218 214 212 215 225 233 235 230 228 235 242 245 241 225 213 211 210 206 203 201 200 199 198
220 223 225 226 227 225 225 227 227 223 219 217 216 214 212 213 214 218 221 219 214 211 216 226 232 235 230 228 234 240 242 235 220 210 210 210 208 206 203 202 202 201
215 223 226 226 225 223 224 225 225 221 216 211 211 212 215 217 216 217 219 218 213 213 219 225 230 234 230 226 231 237 237 228 215 209 209 209 207 206 205 204 204 203
216 224 225 223 222 222 223 223 223 220 213 208 208 211 216 219 218 218 218 216 212 213 218 223 229 234 229 224 228 234 232 222 212 209 210 209 206 205 204 205 206 207
221 224 222 220 220 221 222 221 221 220 213 207 208 211 213 214 217 219 219 215 212 213 215 218 226 230 224 220 224 229 228 218 210 207 209 208 206 205 203 204 206 208
222 222 221 220 219 220 220 220 220 220 214 208 210 214 213 211 213 217 218 215 213 213 212 214 223 227 221 217 221 225 224 217 210 206 206 206 205 206 205 205 205 207
219 218 219 219 218 218 219 218 219 219 215 209 211 217 217 212 212 216 217 216 215 213 211 213 219 223 218 214 217 223 221 216 211 206 203 202 203 205 205 204 204 207
216 216 215 215 215 216 217 217 217 217 216 212 213 219 220 214 212 218 218 216 214 211 208 211 215 216 215 213 212 217 220 216 211 207 203 202 203 204 203 202 203 208
215 214 213 214 215 215 215 216 216 216 217 215 215 222 223 214 210 216 218 217 216 211 206 207 210 212 213 211 209 212 216 215 211 209 206 205 205 204 202 201 205 210
214 214 214 214 215 215 215 215 216 218 219 219 221 226 225 216 210 213 217 217 218 215 208 204 207 210 211 209 208 209 212 212 211 210 209 208 206 205 203 205 209 213
214 214 215 216 216 216 216 216 218 218 217 220 226 229 225 218 213 214 217 219 219 216 212 207 206 207 207 207 205 204 205 207 209 210 211 209 206 204 204 206 211 213
214 215 217 219 219 218 218 219 220 219 216 218 224 226 227 225 220 216 217 221 221 215 210 207 206 204 205 205 202 200 202 206 210 211 211 209 206 204 205 208 213 214
Height
1503 1505 1507 1508 1511 1512 1515 1518 1520 1523 1526 1528 1530 1532 1533 1534 1536 1537 1538 1540 1542 1543 1544 1546 1547 1548 1549 1550 1550 1551 1551 1551 1551 1552 1553 1553 1554 1555 1556 1557 1558 1558
1499 1501 1503 1505 1507 1509 1511 1514 1517 1520 1523 1526 1527 1530 1532 1533 1534 1535 1536 1538 1539 1541 1542 1544 1545 1546 1547 1548 1548 1549 1549 1549 1549 1550 1551 1551 1552 1553 1554 1555 1556 1556
1495 1498 1499 1501 1503 1505 1508 1511 1514 1517 1521 1523 1524 1527 1529 1531 1531 1533 1534 1535 1537 1538 1540 1541 1542 1544 1545 1545 1546 1546 1547 1547 1547 1548 1549 1549 1550 1551 1552 1553 1554 1554
1491 1494 1496 1498 1501 1502 1505 1508 1510 1514 1517 1519 1521 1524 1527 1528 1529 1531 1532 1533 1535 1536 1538 1539 1540 1541 1542 1543 1544 1544 1544 1545 1545 1546 1547 1547 1548 1549 1550 1551 1551 1552
1486 1490 1492 1495 1497 1499 1501 1503 1506 1510 1513 1516 1518 1521 1524 1526 1527 1528 1529 1531 1532 1534 1535 1537 1538 1539 1540 1540 1541 1542 1542 1543 1543 1544 1544 1545 1546 1546 1547 1548 1549 1550
1482 1485 1488 1491 1494 1495 1497 1500 1503 1506 1510 1513 1515 1518 1520 1523 1524 1526 1527 1528 1530 1531 1533 1534 1535 1536 1537 1538 1539 1539 1540 1540 1541 1541 1542 1542 1543 1544 1545 1546 1547 1548
1478 1481 1484 1487 1490 1491 1493 1496 1499 1503 1507 1510 1512 1515 1517 1520 1522 1523 1525 1526 1528 1529 1530 1531 1533 1534 1535 1535 1536 1537 1537 1538 1538 1539 1540 1540 1541 1542 1543 1544 1545 1546
1474 1477 1480 1483 1485 1488 1490 1492 1495 1499 1503 1506 1509 1512 1514 1517 1519 1520 1522 1523 1525 1526 1527 1529 1530 1531 1532 1533 1534 1534 1535 1535 1536 1537 1537 1538 1539 1540 1541 1543 1543 1544
1470 1474 1476 1479 1481 1484 1486 1488 1491 1495 1500 1503 1506 1509 1511 1514 1515 1517 1519 1520 1522 1523 1524 1526 1527 1528 1529 1530 1531 1532 1532 1533 1534 1534 1535 1536 1538 1539 1540 1541 1542 1543
1465 1469 1472 1474 1477 1480 1482 1484 1487 1491 1496 1499 1502 1505 1508 1510 1512 1514 1516 1517 1519 1520 1521 1523 1524 1525 1527 1528 1529 1530 1530 1531 1531 1532 1533 1535 1536 1537 1539 1540 1541 1542
1460 1464 1467 1469 1472 1475 1478 1480 1483 1487 1492 1495 1498 1502 1504 1507 1509 1510 1513 1514 1515 1517 1518 1520 1521 1523 1524 1525 1526 1527 1528 1528 1529 1530 1531 1533 1534 1536 1537 1538 1539 1540
1455 1459 1462 1464 1468 1471 1474 1476 1479 1483 1488 1491 1494 1498 1500 1503 1505 1507 1509 1511 1513 1514 1515 1517 1519 1520 1522 1523 1524 1524 1525 1526 1527 1528 1529 1531 1532 1534 1535 1537 1538 1539
1450 1453 1457 1460 1463 1467 1470 1472 1475 1479 1484 1487 1491 1494 1496 1499 1501 1504 1506 1508 1510 1511 1512 1514 1516 1518 1519 1520 1521 1522 1523 1524 1525 1526 1528 1529 1530 1532 1533 1535 1536 1537
1445 1448 1453 1457 1459 1463 1467 1469 1471 1476 1480 1484 1487 1490 1493 1495 1498 1501 1503 1505 1507 1508 1510 1512 1513 1515 1516 1517 1519 1520 1521 1522 1523 1524 1526 1527 1529 1530 1532 1533 1534 1535
1441 1445 1449 1452 1455 1459 1462 1464 1467 1472 1477 1480 1483 1487 1490 1492 1495 1498 1500 1502 1503 1505 1507 1509 1510 1512 1513 1515 1516 1517 1519 1520 1521 1522 1524 1526 1527 1528 1530 1531 1533 1534
1438 1441 1445 1448 1450 1454 1458 1460 1463 1469 1474 1477 1480 1484 1486 1489 1492 1494 1496 1498 1500 1501 1503 1505 1508 1509 1511 1512 1514 1515 1516 1517 1518 1520 1522 1523 1525 1527 1528 1530 1531 1532
1435 1438 1441 1444 1447 1451 1454 1456 1460 1466 1471 1474 1478 1481 1483 1486 1488 1490 1492 1494 1496 1498 1500 1503 1505 1507 1508 1510 1511 1512 1514 1515 1516 1518 1519 1521 1523 1525 1526 1528 1529 1531
1432 1434 1437 1440 1444 1447 1450 1453 1458 1463 1468 1471 1474 1477 1479 1482 1484 1486 1488 1491 1493 1495 1497 1500 1503 1504 1506 1507 1509 1510 1511 1512 1514 1515 1517 1519 1521 1523 1524 1526 1527 1529
1428 1431 1434 1437 1441 1444 1447 1451 1456 1460 1464 1467 1471 1473 1475 1478 1480 1483 1485 1488 1490 1492 1494 1497 1500 1502 1503 1505 1506 1507 1508 1510 1511 1513 1515 1517 1519 1520 1522 1523 1525 1527
1425 1428 1431 1434 1438 1442 1445 1449 1453 1456 1460 1464 1467 1470 1471 1474 1477 1479 1482 1484 1486 1489 1492 1495 1497 1499 1501 1502 1504 1505 1506 1507 1509 1511 1512 1515 1517 1518 1520 1521 1523 1524
1421 1424 1428 1432 1436 1440 1443 1446 1450 1454 1458 1461 1464 1466 1468 1471 1474 1476 1478 1481 1483 1486 1489 1492 1494 1496 1498 1499 1501 1502 1504 1505 1507 1508 1510 1512 1514 1516 1518 1520 1521 1523
1418 1421 1425 1428 1432 1436 1439 1443 1447 1451 1454 1457 1460 1462 1464 1468 1471 1473 1475 1478 1480 1483 1486 1489 1491 1494 1495 1496 1498 1500 1501 1503 1504 1506 1508 1510 1511 1513 1515 1517 1519 1520
1415 1418 1422 1425 1429 1432 1435 1439 1443 1448 1451 1454 1456 1458 1460 1463 1467 1469 1471 1474 1477 1480 1482 1485 1488 1490 1491 1493 1495 1497 1498 1500 1502 1504 1506 1507 1509 1511 1512 1514 1516 1517
1412 1416 1419 1422 1425 1428 1432 1436 1440 1445 1448 1451 1453 1454 1456 1460 1464 1466 1468 1471 1474 1476 1479 1482 1484 1486 1488 1490 1492 1494 1496 1498 1500 1501 1503 1505 1506 1508 1510 1512 1513 1515
1410 1414 1417 1420 1423 1426 1429 1434 1438 1441 1445 1448 1450 1451 1454 1457 1460 1462 1464 1467 1470 1473 1477 1480 1481 1483 1486 1487 1488 1490 1493 1495 1497 1498 1500 1502 1503 1505 1508 1509 1511 1512
1408 1411 1414 1417 1420 1424 1427 1431 1435 1438 1441 1444 1446 1448 1451 1454 1456 1458 1460 1463 1466 1469 1473 1476 1478 1480 1483 1485 1486 1487 1490 1492 1494 1495 1497 1499 1501 1503 1505 1507 1508 1510